Probability
0 0 0 0 0 0 0 0 0 0 0 0 0 0 0 0 0 0 0 0 0 0 0 0 0 0 0 0 0 0 0 0 0 0 0 0 0 0 0 0 0 0 0 0
0 0 0 0 0 0 0 0 0 0 0 0 0 0 0 0 0 0 0 0 0 0 0 0 0 0 0 0 0 0 0 0 0 0 0 0 0 0 0 0 0 0 0 0
0 0 0 0 0 0 0 0 0 0 0 0 0 0 0 0 0 0 0 0 0 0 0 0 0 0 0 0 0 0 0 0 0 0 0 0 0 0 0 0 0 0 0 0
0 0 0 0 0 0 0 0 0 0 0 0 0 0 0 0 0 0 0 0 0 0 0 0 0 0 0 0 0 0 0 0 0 0 0 0 0 0 0 0 0 0 0 0
0 0 0 0 0 0 0 0 0 0 0 0 0 0 0 0 0 0 0 0 0 0 0 0 0 0 0 0 0 0 0 0 0 0 0 0 0 0 0 0 0 0 0 0
0 0 0 0 0 0 0 0 0 0 0 0 0 0 0 0 0 0 0 0 0 0 0 0 0 0 0 0 0 0 0 0 0 0 0 0 0 0 0 0 0 0 0 0
0 0 0 0 0 0 0 0 0 0 0 0 0 0 0 0 0 0 0 0 0 0 0 0 0 0 0 0 0 0 0 0 0 0 0 0 0 0 0 0 0 0 0 0
0 0 0 0 0 0 0 0 0 0 0 0 0 0 0 0 0 0 0 0 0 0 0 0 0 0 0 0 0 0 0 0 0 0 0 0 0 0 0 0 0 0 0 0
0 0 0 0 0 0 0 0 0 0 0 0 0 0 0 0 0 0 0 0 0 0 0 0 0 0 0 0 0 0 0 0 0 0 0 0 0 0 0 0 0 0 0 0
0 0 0 0 0 0 0 0 0 0 0 0 0 0 0 0 0 0 0 0 0 0 0 0 0 0 0 0 0 0 0 0 0 0 0 0 0 0 0 0 0 0 0 0
0 0 0 0 0 0 0 0 0 0 0 0 0 0 0 0 0 0 0 0 0 0 0 0 0 0 0 0 0 0 0 0 0 0 0 0 0 0 0 0 0 0 0 0
0 0 0 0 0 0 0 0 0 0 0 0 0 0 0 0 0 0 0 0 0 0 0 0 0 0 0 0 0 0 0 0 0 0 0 0 0 0 0 0 0 0 0 0
0 0 0 0 0 0 0 0 0 0 0 0 0 0 0 0 0 0 0 0 0 0 0 0 0 0 0 0 0 0 0 0 0 0 0 0 0 0 0 0 0 0 0 0
0 0 0 0 0 0 0 0 0 0 0 0 0 0 0 0 0 0 0 0 0 0 0 0 0 0 0 0 0 0 0 0 0 0 0 0 0 0 0 0 0 0 0 0
0 0 0 0 0 0 0 0 0 0 0 0 0 0 0 0 0 0 0 0 0 0 0 0 0 0 0 0 0 0 0 0 0 0 0 0 0 0 0 0 0 0 0 0
0 0 0 0 0 0 0 0 0 0 0 0 0 0 0 0 0 0 0 0 0 0 0 0 0 0 0 0 0 0 0 0 0 0 0 0 0 0 0 0 0 0 0 0
0 0 0 0 0 0 0 0 0 0 0 0 0 0 0 0 0 0 0 0 0 0 0 0 0 0 0 0 0 0 0 0 0 0 0 0 0 0 0 0 0 0 0 0
0 0 0 0 0 0 0 0 0 0 0 0 0 0 0 0 0 0 0 0 0 0 0 0 0 0 0 0 0 0 0 0 0 0 0 0 0 0 0 0 0 0 0 0
0 0 0 0 0 0 0 0 0 0 0 0 0 0 0 0 0 0 0 0 0 0 0 0 0 0 0 0 0 0 0 0 0 0 0 0 0 0 0 0 0 0 0 0
0 0 0 0 0 0 0 0 0 0 0 0 0 0 0 0 0 0 0 0 0 0 0 0 0 0 0 0 0 0 0 0 0 0 0 0 0 0 0 0 0 0 0 0
0 0 0 0 0 0 0 0 0 0 0 0 0 0 0 0 0 0 0 0 0 0 0 0 0 0 0 0 0 0 0 0 0 0 0 0 0 0 0 0 0 0 0 0
0 0 0 0 0 0 0 0 0 0 0 0 0 0 0 0 0 0 0 0 0 0 0 0 0 0 0 0 0 0 0 0 0 0 0 0 0 0 0 0 0 0 0 0
0 0 0 0 0 0 0 0 0 0 0 0 0 0 0 0 0 0 0 0 0 0 0 0 0 0 0 0 0 0 0 0 0 0 0 0 0 0 0 0 0 0 0 0
0 0 0 0 0 0 0 0 0 0 0 0 0 0 0 0 0 0 0 0 0 0 0 0 0 0 0 0 0 0 0 0 0 0 0 0 0 0 0 0 0 0 0 0
0 0 0 0 0 0 0 0 0 0 0 0 0 0 0 0 0 0 0 0 0 0 0 0 0 0 0 0 0 0 0 0 0 0 0 0 0 0 0 0 0 0 0 0
0 0 0 0 0 0 0 0 0 0 0 0 0 0 0 0 0 0 0 0 0 0 0 0 0 0 0 0 0 0 0 0 0 0 0 0 0 0 0 0 0 0 0 0
0 0 0 0 0 0 0 0 0 0 0 0 0 0 0 0 0 0 0 0 0 0 0 0 0 0 0 0 0 0 0 0 0 0 0 0 0 0 0 0 0 0 0 0
Wind_Speed
2 6 10 9 9 9 8 4 1 2 2 3 5 5 7 8 10 9 6 8 9 8 8 8 9 9 9 9 10 10 10 10 11 12 11 10 9 10 9 9 10 9 8 8
5 9 11 11 10 7 5 4 2 2 1 4 6 5 7 9 11 8 9 11 11 11 11 11 11 11 10 10 11 10 10 10 11 10 10 10 10 10 9 9 9 9 9 10
3 2 3 6 5 5 3 4 3 2 4 7 7 9 9 10 9 10 12 14 14 12 12 12 12 12 12 12 11 10 11 11 10 10 10 10 10 8 8 8 8 8 9 9
2 6 3 3 1 4 3 4 3 1 5 6 8 9 8 9 9 12 14 14 13 12 12 12 11 11 12 12 11 11 11 11 10 10 10 9 8 8 7 6 6 7 8 9
3 2 1 0 4 3 2 3 3 4 7 9 8 7 6 8 10 12 14 14 12 12 13 12 12 13 13 13 13 12 12 11 10 9 9 8 8 8 7 6 6 7 6 8
3 1 3 2 5 5 2 2 3 6 7 9 9 9 7 9 11 11 11 9 9 10 10 11 12 12 13 14 14 14 14 12 11 9 8 8 8 7 6 6 7 7 7 7
2 1 2 3 5 5 4 7 7 5 7 7 6 8 11 13 11 9 9 10 10 10 11 12 13 13 13 14 14 15 14 13 11 10 9 8 7 6 6 6 6 7 8 7
2 2 5 3 4 3 5 6 5 5 6 7 8 10 10 10 10 10 10 10 11 11 13 13 13 14 15 16 15 15 15 14 13 11 11 10 7 6 6 6 6 7 7 7
6 6 5 1 3 4 4 3 4 5 7 7 8 8 9 9 10 10 11 12 11 13 16 15 13 13 16 16 15 15 14 14 12 12 10 9 8 8 7 6 6 6 5 5
2 2 4 3 1 1 1 2 4 5 6 7 7 9 9 9 10 11 11 12 13 16 17 17 15 14 14 15 14 13 13 12 10 9 9 8 7 6 6 6 6 6 5 5
1 1 1 2 2 2 2 3 5 6 6 7 7 7 8 8 10 11 12 12 13 15 16 17 16 15 14 14 13 13 12 10 9 8 7 6 6 5 6 5 5 6 5 4
5 6 4 4 3 2 3 5 6 6 7 7 6 7 8 9 9 11 14 14 15 16 16 17 16 16 14 13 12 11 10 8 6 5 5 5 4 4 5 6 8 10 8 6
6 6 6 3 1 2 2 4 5 5 6 6 6 6 8 9 9 12 14 15 16 16 17 16 15 15 14 13 12 11 10 8 6 5 5 4 3 2 2 2 2 4 6 7
6 5 3 2 1 1 3 4 5 5 5 5 5 7 8 9 11 14 15 15 15 16 15 14 15 14 14 13 12 11 9 8 7 4 4 3 2 2 1 1 1 1 1 1
6 6 5 3 2 2 3 4 5 6 6 6 6 7 9 11 13 14 13 13 14 15 14 14 14 14 14 12 12 11 7 5 4 4 3 3 2 1 1 1 2 3 3 3
6 5 5 4 2 2 3 4 4 6 6 6 6 8 10 11 12 12 12 12 14 16 15 14 14 14 14 11 10 8 6 9 6 3 3 3 2 1 1 2 3 3 4 4
6 4 3 2 1 1 2 3 3 4 5 6 7 9 10 11 12 13 14 14 13 13 12 13 14 15 13 10 8 7 6 6 8 4 3 2 2 1 1 2 2 3 3 4
7 7 7 6 4 1 2 3 4 4 4 6 7 8 10 11 12 13 14 14 13 13 13 14 15 15 12 9 7 6 5 4 3 3 2 2 2 1 1 2 2 3 3 3
7 8 7 6 5 2 1 3 3 4 5 5 7 8 9 10 10 11 12 12 13 15 17 18 21 15 11 10 9 5 5 4 4 3 2 2 2 1 1 2 2 3 3 3
7 8 7 6 4 2 1 3 3 3 4 5 7 8 9 10 11 11 12 10 8 10 15 18 16 13 12 9 10 4 3 3 3 3 3 2 2 2 2 2 3 3 3 3
8 8 7 5 3 1 2 2 2 3 4 5 6 7 8 9 9 9 10 11 13 15 17 17 13 12 12 11 9 4 3 2 1 1 2 2 2 2 2 2 3 3 3 3
8 7 7 5 3 2 2 2 1 2 4 5 6 7 8 9 9 8 7 7 11 17 15 11 12 17 19 14 6 4 3 1 1 1 1 0 1 1 1 2 2 2 3 3
7 7 7 6 5 3 1 1 1 1 3 4 6 7 7 7 6 8 10 10 11 17 13 10 19 25 21 11 8 7 5 2 1 1 2 1 1 1 1 2 2 2 3 3
7 8 7 6 5 3 2 2 1 0 1 3 5 5 5 6 6 5 6 11 15 16 11 13 20 23 17 9 9 9 8 6 4 1 1 1 1 1 2 2 2 2 3 3
8 8 7 6 5 4 4 3 1 2 2 3 5 5 4 4 5 7 8 10 14 14 11 14 18 19 13 10 10 10 9 9 8 4 2 0 1 1 2 2 3 3 3 4
8 7 6 6 5 5 4 3 2 1 1 2 3 4 4 4 6 6 7 9 12 13 10 10 11 13 11 11 11 11 11 11 10 8 6 4 2 1 1 2 3 3 3 4
7 5 4 4 4 5 5 4 3 2 1 1 2 4 4 5 6 7 8 9 9 9 9 9 9 10 10 11 11 11 10 10 10 9 8 6 5 4 3 3 2 2 3 3
Wind_Direction
10 84 89 78 63 61 70 76 105 293 131 354 331 320 310 308 310 314 315 313 305 294 282 274 269 264 259 256 252 247 242 238 237 238 236 235 236 240 243 245 248 248 250 254
47 102 92 70 50 43 45 37 20 63 102 306 304 310 314 315 317 312 306 306 303 296 289 283 277 273 269 265 260 252 244 239 236 229 225 223 227 230 234 238 243 245 246 249
335 290 68 32 26 47 34 36 68 44 301 305 316 318 309 309 309 302 305 306 303 297 289 286 284 281 278 274 269 258 250 244 234 226 221 218 218 217 222 231 238 243 246 245
10 26 37 235 73 70 97 95 60 350 300 303 301 296 288 294 299 302 303 303 301 299 297 296 294 296 294 291 285 276 266 257 247 235 227 219 212 213 220 224 230 237 243 244
68 13 204 301 9 354 296 191 52 355 329 319 306 303 286 280 292 295 299 304 308 311 314 317 319 320 318 312 306 297 289 277 263 247 235 223 216 216 218 223 233 235 236 240
54 360 258 271 317 311 339 277 341 348 323 315 333 331 300 301 303 303 308 314 319 322 321 321 320 321 318 313 309 304 301 295 285 268 248 234 222 220 220 221 232 237 238 236
45 313 274 298 323 35 56 278 297 306 309 314 310 280 290 308 314 318 319 318 319 319 319 318 317 315 310 305 301 298 295 292 289 281 267 251 235 226 229 233 235 236 239 238
89 5 275 317 45 72 244 257 286 297 299 297 290 289 299 310 317 322 320 319 321 321 320 317 315 313 309 305 301 297 293 287 282 278 272 270 250 241 236 233 233 235 236 241
177 207 220 137 148 207 224 272 290 292 296 299 305 306 315 318 321 321 320 321 322 322 321 319 317 313 309 307 306 304 299 292 285 280 272 264 253 249 244 230 227 228 223 230
115 164 173 158 158 330 344 312 302 302 305 315 316 318 323 323 324 324 326 324 326 326 323 322 321 316 310 309 310 307 303 298 289 282 277 268 257 247 240 227 220 218 215 219
166 196 188 329 335 345 6 346 333 323 318 324 328 325 324 324 324 325 327 325 325 324 321 320 320 317 315 314 315 313 309 303 296 287 280 273 264 251 239 225 209 202 205 202
211 219 194 250 280 43 23 344 328 329 329 330 332 326 327 323 322 324 327 326 325 323 321 320 320 318 317 317 316 315 312 309 303 297 291 280 277 279 254 239 231 223 215 199
175 183 182 210 81 42 4 337 332 335 332 328 329 328 325 320 321 326 327 327 325 322 321 320 321 320 320 321 320 317 313 311 306 302 300 295 287 277 288 309 276 227 217 207
166 157 154 157 177 7 1 341 340 337 328 326 326 325 324 320 323 328 327 324 321 321 321 322 322 322 323 324 323 320 319 322 325 313 310 305 297 280 243 203 134 79 77 154
173 161 164 157 102 25 358 348 345 331 324 328 327 326 325 325 324 323 321 321 322 324 326 326 326 326 326 327 327 325 324 321 322 324 326 322 319 313 276 183 142 126 112 80
165 142 127 110 75 8 349 345 334 322 324 325 326 322 320 318 317 318 322 327 329 328 327 328 329 326 325 325 328 328 327 339 348 337 338 346 355 13 44 94 122 132 137 136
154 163 154 145 143 353 333 321 317 317 320 323 317 315 318 321 324 329 330 329 324 320 323 329 329 325 323 321 324 325 328 332 344 345 346 356 10 36 83 114 122 128 138 156
165 167 164 159 162 161 330 328 322 321 314 309 313 317 321 324 324 324 325 325 327 331 336 335 330 326 322 319 323 322 326 326 325 331 341 1 10 44 82 102 113 117 118 140
148 147 147 141 138 132 305 304 303 305 309 313 318 318 315 314 316 319 325 329 335 339 336 332 327 325 321 319 324 314 324 334 339 338 342 355 21 58 88 95 101 114 129 132
148 147 144 138 129 125 303 296 300 306 306 311 319 321 323 325 328 329 331 328 329 329 327 327 327 328 326 320 321 304 310 329 344 352 6 21 33 50 80 100 109 116 122 132
155 154 149 145 145 151 300 301 296 302 306 320 326 322 319 319 324 330 334 336 335 336 334 329 333 335 333 328 320 302 290 291 321 342 10 28 35 48 69 94 108 118 125 127
164 160 158 158 168 223 278 268 270 304 324 332 331 328 330 331 333 334 329 324 326 332 335 333 338 337 337 336 337 330 308 278 251 270 296 20 71 77 81 98 109 116 118 116
170 169 167 172 183 210 241 230 277 326 343 343 336 335 333 329 332 338 338 336 335 333 334 334 335 337 342 351 352 352 351 336 289 254 245 233 213 189 173 159 147 139 135 129
176 177 178 182 173 163 179 219 244 10 21 352 336 335 336 336 334 335 325 329 336 335 335 333 337 342 349 358 0 1 1 357 349 327 251 220 207 199 190 182 174 168 164 162
181 179 176 173 174 180 183 177 119 56 33 351 336 339 342 342 335 333 336 339 341 342 340 339 344 347 357 2 3 3 3 2 359 359 11 54 182 190 189 181 172 167 169 173
183 186 185 183 173 164 160 150 139 132 60 355 336 337 340 340 338 340 343 343 344 343 345 347 351 354 359 1 2 3 3 2 2 1 5 12 22 47 104 144 151 154 160 166
189 185 168 152 150 150 148 147 146 147 134 72 351 342 348 347 347 349 350 351 350 349 350 353 356 359 1 3 3 4 4 4 4 1 2 9 15 22 31 55 81 103 119 132